Location: Acton
(51.4942°N, 0.2232°W)
Time: 13:48:56
(UTC+00:00)

Okean 1-7 Rocket - Pass Details

Date: 23 January 2021
Orbit: 615 x 650 km, 82.5° (Epoch: 28 February)

Event Time Altitude Azimuth Distance (km) Brightness Sun altitude
Exits shadow 04:31:32 31° 122° (ESE) 1,116 5.2 -30.7°
Drops below altitude 10° 04:34:14 10° 146° (SSE) 2,024 6.5 -30.3°
Sets 04:36:33 0° 153° (SSE) 2,922 7.3 -29.9°
